Flag for India Weather past 2 weeks in Kolkata, West Bengal, India

Now
86 °F

Light rain. Broken clouds.


Feels Like: 102 °F
Forecast: 82 / 95 °F
Wind: 7 mph from Southwest

Location: Calcutta / Dum Dum

Current Time: Sep 1, 2015 at 2:25:46 PM

Latest Report: Sep 1, 2015 at 1:50 PM


Visibility: 2 mi

Pressure: 29.56 "Hg

Humidity: 84%

Dew point: 81 °F

Location of KolkataLocation

Historic Weather in Kolkata — Graph

°F

Kolkata temperature yesterday

Maximum temperature yesterday: 91 °F (at 12:20 PM)
Minimum temperature yesterday: 79 °F (at 4:20 PM)
Average temperature yesterday: 85 °F

Past Weeks' High & Low Weather Summary

 TemperatureHumidityPressure
High95 °F (Aug 24, 2:20 PM)100% (Aug 29, 2:50 AM)29.71 "Hg (Aug 29, 2:50 AM)
Low79 °F (Aug 21, 6:20 PM)56% (Aug 22, 2:50 PM)29.47 "Hg (Aug 22, 2:50 PM)
Average86 °F85%29.59 "Hg
* Reported Aug 17 12:50 PM — Sep 1 1:20 PM, Kolkata, Weather by CustomWeather, © 2015

Note: Actual official high and low records may vary slightly from our data, if they occured in-between our weather recording intervals... More about our weather records

Advertising

Kolkata weather history for previous 24 hours

 ConditionsComfort  
Time TempWeatherWind HumidityBarometerVisibility
1:20 PM
Tue, Sep 1
86 °FLight rain. Broken clouds.8 mph89%29.56 "Hg1 mi
12:50 PM86 °FFog.6 mph94%29.56 "Hg2 mi
12:20 PM84 °FFog.3 mph94%29.59 "Hg2 mi
11:50 AM84 °FFog.3 mph94%29.59 "Hg2 mi
11:20 AM84 °FFog.6 mph94%29.59 "Hg2 mi
10:50 AM84 °FFog.6 mph94%29.59 "Hg2 mi
10:20 AM84 °FFog.7 mph94%29.59 "Hg1 mi
8:50 AM82 °FFog.No wind94%29.59 "Hg2 mi
8:20 AM82 °FFog.No wind94%29.59 "Hg1 mi
7:50 AM81 °FFog.No wind94%29.56 "Hg1 mi
7:20 AM81 °FFog.No wind94%29.56 "Hg1 mi
6:50 AM81 °FFog.No wind94%29.56 "Hg1 mi
6:20 AM81 °FFog.No wind94%29.53 "Hg1 mi
5:50 AM81 °FFog.No wind94%29.53 "Hg1 mi
5:20 AM81 °FFog.No wind94%29.53 "Hg1 mi
4:50 AM81 °FFog.No wind94%29.53 "Hg1 mi
4:20 AM81 °FFog.No wind94%29.53 "Hg1 mi
3:50 AM81 °FFog.No wind94%29.56 "Hg1 mi
3:20 AM81 °FFog.3 mph94%29.56 "Hg1 mi
2:50 AM81 °FLight rain. Partly cloudy.No wind94%29.56 "Hg2 mi
2:20 AM81 °FLight rain. Partly cloudy.No wind94%29.56 "Hg2 mi
1:50 AM81 °FLight rain. Partly cloudy.No wind94%29.56 "Hg2 mi
1:20 AM81 °FLight rain. Partly cloudy.3 mph94%29.56 "Hg2 mi
12:50 AM81 °FLight rain. Partly cloudy.No wind94%29.56 "Hg2 mi
12:20 AM81 °FLight rain. Partly cloudy.No wind94%29.59 "Hg2 mi
11:50 PM
Mon, Aug 31
81 °FLight rain. Mostly cloudy.No wind94%29.59 "Hg2 mi
11:20 PM79 °FLight rain. Mostly cloudy.No wind94%29.59 "Hg2 mi
10:50 PM79 °FLight rain. Mostly cloudy.No wind94%29.59 "Hg2 mi
10:20 PM79 °FLight rain. Mostly cloudy.No wind94%29.62 "Hg2 mi
9:20 PM79 °FThunderstorms. Mostly cloudy.No wind94%29.62 "Hg2 mi
8:50 PM79 °FThunderstorms. Mostly cloudy.3 mph94%29.62 "Hg2 mi
8:20 PM79 °FThunderstorms. Mostly cloudy.5 mph94%29.62 "Hg2 mi
7:20 PM79 °FThunderstorms. Mostly cloudy.13 mph94%29.59 "Hg1 mi
6:50 PM81 °FThunderstorms. Mostly cloudy.12 mph94%29.59 "Hg2 mi
6:20 PM81 °FThunderstorms. More clouds than sun.No wind94%29.56 "Hg2 mi
5:20 PM81 °FThunderstorms. More clouds than sun.3 mph94%29.53 "Hg2 mi
4:50 PM79 °FThunderstorms. More clouds than sun.7 mph94%29.53 "Hg2 mi
4:20 PM79 °FThunderstorms. More clouds than sun.9 mph94%29.53 "Hg1 mi
3:20 PM90 °FBroken clouds.6 mph79%29.53 "Hg2 mi
2:50 PM91 °FBroken clouds.8 mph75%29.53 "Hg2 mi
2:20 PM91 °FBroken clouds.7 mph75%29.56 "Hg2 mi
Weather by CustomWeather, © 2015

See weather overviewHow to use our weather pages